AIJ438 MMTM-MMMX

Flight info

Callsign AIJ438
Flight time N/A
Altitude 26000
Route NOTOR1A TAM UT102 PAZ UT154 ENAGA ENAGA3A
Aircraft A20N/M-SDE2E3FGHIRWXY/LB1

Departure

Time 2026-05-08 03:31
Airport General Francisco Javier Mina International Airport (MMTM)

Arrival

Time N/A
Airport Mexico City Benito Juárez International Airport (MMMX)
Time Latitude Longitude Altitude Speed Heading
2026-05-08 02:57 22.29350 -97.87132 84 ft 0 kts
2026-05-08 03:23 22.29347 -97.87132 84 ft 2 kts
2026-05-08 03:23 22.29332 -97.87135 88 ft 2 kts
2026-05-08 03:23 22.29318 -97.87137 85 ft 2 kts 359°
2026-05-08 03:24 22.29303 -97.87135 88 ft 2 kts 340°
2026-05-08 03:24 22.29300 -97.87134 88 ft 0 kts 336°
2026-05-08 03:25 22.29302 -97.87135 88 ft 2 kts 336°
2026-05-08 03:26 22.29377 -97.87176 85 ft 17 kts 331°
2026-05-08 03:26 22.29457 -97.87218 86 ft 9 kts 346°
2026-05-08 03:26 22.29505 -97.87177 85 ft 17 kts 45°
2026-05-08 03:26 22.29600 -97.87054 90 ft 23 kts 51°
2026-05-08 03:27 22.29705 -97.87030 88 ft 9 kts 314°
2026-05-08 03:27 22.29834 -97.87133 88 ft 36 kts 325°
2026-05-08 03:27 22.30050 -97.87296 89 ft 39 kts 325°
2026-05-08 03:27 22.30144 -97.87441 90 ft 4 kts 318°
2026-05-08 03:28 22.30170 -97.87424 89 ft 5 kts 53°
2026-05-08 03:28 22.30159 -97.87387 92 ft 6 kts 137°
2026-05-08 03:28 22.30132 -97.87362 91 ft 2 kts 145°
2026-05-08 03:28 22.30131 -97.87361 91 ft 0 kts 145°
2026-05-08 03:30 22.30021 -97.87283 92 ft 60 kts 146°
2026-05-08 03:30 22.28558 -97.86176 473 ft 164 kts 144°
2026-05-08 03:31 22.26514 -97.84802 2146 ft 182 kts 146°
2026-05-08 03:31 22.23786 -97.83124 2755 ft 266 kts 148°
2026-05-08 03:32 22.22074 -97.82087 3204 ft 298 kts 149°